Showing default

P 76-5, 8860

Orbit data source: Space-Track

P 76-5, 8860 is an American payload satellite in SSO that was launched on Sat, 22 May 1976 UTC via an SCOUT B-1 launch vehicle from the Air Force Western Test Range (AFWTR). Payload-class satellites include a variety of spacecraft equipped with specific instruments for various scientific and technological missions. These include communications satellites like Starlink; space stations such as the ISS; scientific satellites like the Hubble; Earth observation satellites from companies like Planet Labs, Umbra, and HawkEye 360; GPS; miniature CubeSats for education and research; and military/defense satellites.

Loading next visibility...
Identifier
8860, 1976-047A
Orbit
SSO
Country
Flag of USUS
Related business
Manufacturer
APL
Mission
Spacecraft
Bus & Motor
TRANSIT 5, Unknown motor
Mass
72 kg wet, 72 kg dry
Launch date (UTC)
1976-05-22 (50 years ago)
Launch vehicle
SCOUT B-1
Launch site
Air Force Western Test Range (AFWTR)
Object type
Payload
Rocket body
Debris
Shape & HBR
Unknown
Radar Cross Section
Large (>1 m²)

Expand to show TLE details & history
Last TLE update: 2 days ago

TLE from 2 days ago
0 P 76-5
1  8860U 76047A   26171.36451997  .00000045  00000-0  10804-3 0  9992
2  8860  99.9040  24.7422 0041787 351.1869 182.1318 13.68301580496824
Epoch: 2026-06-20T08:44Z
TLE epoch observation values (Epoch: 2026-06-20T08:44:54.525Z)
Latitude
6.52554°
Longitude
166.0733°
Altitude
1,038.708 km
Speed
7.318 km/s
True Right ascension
13h 43m 31s
True Declination
6° 29' 18"
Sunlit
Object was in daylight at epoch
Visualization orbit readout
Latitude
Unknown
Longitude
Unknown
Altitude
Unknown
Speed
Unknown
Apparent Right ascension
Unknown
Apparent Declination
Unknown
Sunlit
N/A
Visualization observer readout
Local Sidereal Time
23:08:23
Azimuth
Unknown
Elevation
Unknown
Doppler factor
Unknown
Orbital elements
Apogee altitude
1,033.806 km
Perigee altitude
972.119 km
Semi-major axis
7,381.099 km
Eccentricity
0.00418
Inclination
99.904°
RAAN
24.7422°
Arg. of periapsis
351.1869°
True anomaly
182.11408°
Mean anomaly
182.1318°
Eccentric anomaly
182.12293°
Mean motion
3.42264 °/min
Orbital period
105.18 mins
BSTAR
0.00010804
Loading maneuver chart data...
Computing Atmospheric mass density...
Loading historical data...
Loading historical data...
Loading historical data...
Loading historical data...
Loading historical data...
Loading historical data...
Loading historical data...
Other satellites on launch #47 in the year 1976 (1976-05-22 UTC)

Documentation

Showing up to 5 results
|